This is the latest recevied weather packets stored in our database for station/object PY5AL-13. If no packets are shown the sender has not sent any weather packets the latest 10 day(s).
| Time | Temp. | Humidity | Pressure | Rain* | Wind** | Luminosity | Snow |
|---|---|---|---|---|---|---|---|
| 1777089203 | 28.89° C | 56% | 1014.1 hPa | - | - | - | - |
| 1777088003 | 28.89° C | 57% | 1014.2 hPa | - | - | - | - |
| 1777086803 | 29.44° C | 57% | 1014.4 hPa | - | - | - | - |
| 1777085603 | 29.44° C | 57% | 1014.6 hPa | - | - | - | - |
| 1777084403 | 29.44° C | 54% | 1014.6 hPa | - | - | - | - |
| 1777083204 | 29.44° C | 55% | 1014.7 hPa | - | - | - | - |
| 1777082003 | 29.44° C | 56% | 1014.9 hPa | - | - | - | - |
| 1777080804 | 29.44° C | 56% | 1015 hPa | - | - | - | - |
| 1777079604 | 29.44° C | 56% | 1015.1 hPa | - | - | - | - |
| 1777078404 | 29.44° C | 56% | 1015.4 hPa | - | - | - | - |
| 1777077204 | 29.44° C | 56% | 1015.5 hPa | - | - | - | - |
| 1777076004 | 29.44° C | 55% | 1015.6 hPa | - | - | - | - |
| 1777074804 | 30° C | 55% | 1015.7 hPa | - | - | - | - |
| 1777073604 | 30° C | 55% | 1015.6 hPa | - | - | - | - |
| 1777072404 | 30° C | 55% | 1015.7 hPa | - | - | - | - |
| 1777071204 | 30° C | 54% | 1015.7 hPa | - | - | - | - |
| 1777070004 | 30° C | 54% | 1015.5 hPa | - | - | - | - |
| 1777068804 | 30° C | 54% | 1015.6 hPa | - | - | - | - |
| 1777067604 | 30° C | 54% | 1015.3 hPa | - | - | - | - |
| 1777066404 | 30° C | 53% | 1015.2 hPa | - | - | - | - |
| 1777065204 | 29.44° C | 54% | 1015.2 hPa | - | - | - | - |
| 1777064004 | 29.44° C | 53% | 1015.2 hPa | - | - | - | - |
| 1777062804 | 30° C | 51% | 1015.2 hPa | - | - | - | - |
| 1777061604 | 30.56° C | 53% | 1015.2 hPa | - | - | - | - |
| 1777060404 | 30.56° C | 52% | 1015.1 hPa | - | - | - | - |
* Rain since midnight (hover to see other rain measurements)
** Current wind speed in m/s (hover to see current wind gust speed)